Munte, Belgium

12:26 PM CET on December 07, 2016 (GMT +0100)
Semmerzake

Weather History for EBMT - July, 2013

Change the Weather History Date:

Monday, July 15, 2013

  Actual Average Record
Temperature  
Mean Temperature 69 °F -  
Max Temperature 81 °F - - ()
Min Temperature 57 °F - - ()
Cooling Degree Days 4    
Growing Degree Days 19 (Base 50)    
Moisture  
Dew Point 59 °F    
Average Humidity 66    
Maximum Humidity 100    
Minimum Humidity 36    
Precipitation  
Precipitation 0.00 in - - ()
Sea Level Pressure  
Sea Level Pressure 30.22 in    
Wind  
Wind Speed 1 mph ()    
Max Wind Speed 7 mph    
Max Gust Speed -    
Visibility 6.9 miles    
Events Fog    
T = Trace of Precipitation, MM = Missing Value Source: Averaged Metar Reports

Daily Weather History Graph

Daily Weather History Graph

Search for Another Location

Airport or City:

Trip Planner

Search our weather history database for the weather conditions in past years. The results will help you decide how hot, cold, wet, or windy it might be!

Date:

Astronomy

Jul. 15, 2013 Rise Set
Actual Time 5:48 AM CEST 9:53 PM CEST
Civil Twilight 5:04 AM CEST 10:36 PM CEST
Nautical Twilight 4:02 AM CEST 11:38 PM CEST
Astronomical Twilight 2:23 AM CEST 1:18 AM CEST
Moon 1:45 PM CEST (7/15) 12:07 AM CEST (7/15)
Length of Visible Light 17h 31m
Length of Day
16h 04m
Waxing Crescent, 42% of the Moon is Illuminated
Jul 15
Waxing Crescent
Jul 16
First Quarter
Jul 22
Full
Jul 29
Last Quarter
Aug 6
New

Hourly Weather History & Observations

Time (CEST) Temp. Dew Point Humidity Pressure Visibility Wind Dir Wind Speed Gust Speed Precip Events Conditions
12:00 AM 63 °F 61 °F 89% 30.22 in 3 mi Calm Calm - -  
2:00 AM 62 °F 61 °F 97% 30.22 in 2 mi Calm Calm - -   Mist
3:00 AM 61 °F 60 °F 97% 30.21 in 1 mi Calm Calm - -   Mist
4:00 AM 60 °F 60 °F 100% 30.21 in 1 mi Calm Calm - -   Mist
5:00 AM 58 °F 58 °F 100% 30.21 in 1 mi Calm Calm - - Fog Fog
6:00 AM 58 °F 58 °F 100% 30.21 in 0 mi Calm Calm - - Fog Patches of Fog
7:00 AM 57 °F 57 °F 100% 30.22 in 0 mi Calm Calm - - Fog Patches of Fog
8:00 AM 62 °F 59 °F 88% 30.22 in 2 mi Calm Calm - -   Mist
9:00 AM 67 °F 62 °F 79% 30.23 in 4 mi Calm Calm - -   Clear
10:00 AM 71 °F 64 °F 71% 30.24 in 5 mi Calm Calm - -   Clear
11:00 AM 73 °F 64 °F 65% 30.24 in 6 mi 2.2 mph - -   Scattered Clouds
12:00 PM 75 °F 59 °F 48% 30.24 in 12 mi NE 2.3 mph - -   Scattered Clouds
1:00 PM 77 °F 58 °F 41% 30.24 in 11 mi 2.3 mph - -   Scattered Clouds
2:00 PM 78 °F 58 °F 39% 30.23 in 11 mi NNW 6.7 mph - -   Scattered Clouds
3:00 PM 80 °F 60 °F 41% 30.23 in 10 mi 4.5 mph - -   Scattered Clouds
4:00 PM 80 °F 60 °F 39% 30.22 in 10 mi North 2.3 mph - -   Partly Cloudy
5:00 PM 81 °F 58 °F 36% 30.22 in 14 mi NNW 6.7 mph - -   Partly Cloudy
6:00 PM 81 °F 58 °F 36% 30.22 in 17 mi NNW 6.7 mph - -   Scattered Clouds
7:00 PM 79 °F 58 °F 39% 30.21 in 22 mi North 4.6 mph - -  
8:00 PM 76 °F 56 °F 40% 30.22 in 22 mi NNW 6.7 mph - -  
9:00 PM 73 °F 54 °F 40% 30.22 in 22 mi North 4.5 mph - -  
10:00 PM 66 °F 54 °F 55% 30.23 in 19 mi 4.5 mph - -  
11:00 PM 63 °F 56 °F 73% 30.24 in 9 mi 4.5 mph - -